SCP
0 0 0 0 0 0 0 0 0 0 0 0 0 0 0 0 1 1 1 1 1 1 1 1 1 1 1 1 0 0 0 0 0 0 0 0 0 0 0 0 0 0 0
0 0 0 0 0 0 0 0 0 0 0 0 0 0 0 0 1 1 1 1 1 1 1 1 1 1 1 1 0 0 0 0 0 0 0 0 0 0 0 0 0 0 0
0 0 0 0 0 0 0 0 0 0 0 0 0 0 0 0 0 1 1 1 1 1 1 1 1 1 1 1 0 0 0 0 0 0 0 0 0 0 0 0 0 0 0
0 0 0 0 0 0 0 0 0 0 0 0 0 0 0 0 0 0 1 1 1 1 1 1 1 1 1 1 0 0 0 0 0 0 0 0 0 0 0 0 0 0 0
0 0 0 0 0 0 0 0 0 0 0 0 0 0 0 0 0 0 0 1 1 1 1 1 1 1 1 1 0 0 0 0 0 0 0 0 0 0 0 0 0 0 0
0 0 0 0 0 0 0 0 0 0 0 0 0 0 0 0 0 0 0 1 1 1 1 1 1 1 1 1 0 0 0 0 0 0 0 0 0 0 0 0 0 0 0
0 0 0 0 0 0 0 0 0 0 0 0 0 0 0 0 0 0 0 0 0 0 1 1 1 1 1 1 1 1 1 0 0 0 0 0 0 0 0 0 0 0 0
0 0 0 0 0 0 0 0 0 0 0 0 0 0 0 0 0 0 0 0 0 0 0 1 1 1 1 1 1 1 1 0 0 0 0 0 0 0 0 0 0 0 0
0 0 0 0 0 0 0 0 0 0 0 0 0 0 0 0 0 0 0 0 0 0 0 0 0 0 1 1 1 0 0 0 0 0 0 0 0 0 0 0 0 0 0
0 0 0 0 0 0 0 0 0 0 0 0 0 0 0 0 0 0 0 0 0 0 0 0 0 0 0 0 0 0 0 0 0 0 0 0 0 0 0 0 0 0 0
0 0 0 0 0 0 0 0 0 0 0 0 0 0 0 0 0 0 0 0 0 0 0 0 0 0 0 0 0 0 0 0 0 0 0 0 0 0 0 0 0 0 0
0 0 0 0 0 0 0 0 0 0 0 0 0 0 0 0 0 0 0 0 0 0 0 0 0 0 0 0 0 0 0 0 0 0 0 0 0 0 0 0 0 0 0
0 0 0 0 0 0 0 0 0 0 0 0 0 0 0 0 0 0 0 0 0 0 0 0 0 0 0 0 0 0 0 0 0 0 0 0 0 0 0 0 0 0 0
0 0 0 0 0 0 0 0 0 0 0 0 0 0 0 0 0 0 0 0 0 0 0 0 0 0 0 0 0 0 0 0 0 0 0 0 0 0 0 0 0 0 0
0 0 0 0 0 0 0 0 0 0 0 0 0 0 0 0 0 0 0 0 0 0 0 0 0 0 0 0 0 0 0 0 0 0 0 0 0 0 0 0 0 0 0
0 0 0 0 0 0 0 0 0 0 0 0 0 0 0 0 0 0 0 0 0 0 0 0 0 0 0 0 0 0 0 0 0 0 0 0 0 0 0 0 0 0 0
0 0 0 0 0 0 0 0 0 0 0 0 0 0 0 0 0 0 0 0 0 0 0 0 0 0 0 0 0 0 0 0 0 0 0 0 0 0 0 0 0 0 0
0 0 0 0 0 0 0 0 0 0 0 0 0 0 0 0 0 0 0 0 0 0 0 0 0 0 0 0 0 0 0 0 0 0 0 0 0 0 0 0 0 0 0
0 0 0 0 0 0 0 0 0 0 0 0 0 0 0 0 0 0 0 0 0 0 0 0 0 0 0 0 0 0 0 0 0 0 0 0 0 0 0 0 0 0 0
0 0 0 0 0 0 0 0 0 0 0 0 0 0 0 0 0 0 0 0 0 0 0 0 0 0 0 0 0 0 0 0 0 0 0 0 0 0 0 0 0 0 0
0 0 0 0 0 0 0 0 0 0 0 0 0 0 0 0 0 0 0 0 0 0 0 0 0 0 0 0 0 0 0 0 0 0 0 0 0 0 0 0 0 0 0
0 0 0 0 0 0 0 0 0 0 0 0 0 0 0 0 0 0 0 0 0 0 0 0 0 0 0 0 0 0 0 0 0 0 0 0 0 0 0 0 0 0 0
0 0 0 0 0 0 0 0 0 0 0 0 0 0 0 0 0 0 0 0 0 0 0 0 0 0 0 0 0 0 0 0 0 0 0 0 0 0 0 0 0 0 0
0 0 0 0 0 0 0 0 0 0 0 0 0 0 0 0 0 0 0 0 0 0 0 0 0 0 0 0 0 0 0 0 0 0 0 0 0 0 0 0 0 0 0
0 0 0 0 0 0 0 0 0 0 0 0 0 0 0 0 0 0 0 0 0 0 0 0 -0 0 0 0 0 0 0 0 0 0 0 0 0 0 0 0 0 0 0
0 0 0 0 0 0 0 0 0 0 0 0 0 0 0 0 0 0 0 0 0 0 -0 -0 -0 -0 0 0 0 0 0 0 0 0 0 0 0 0 0 0 0 0 0
Wind_Speed
11 10 10 9 9 9 10 9 8 7 5 3 3 3 3 3 3 4 5 6 6 6 4 4 4 4 3 3 3 2 2 2 2 1 1 1 2 3 3 3 3 5 7
12 11 11 10 10 9 9 10 8 8 7 4 4 3 4 4 4 3 5 6 7 6 6 6 5 5 4 4 4 3 2 2 2 2 2 1 2 2 3 3 2 3 4
12 12 11 10 10 9 10 10 9 9 8 7 4 4 4 4 4 4 4 5 6 7 6 6 6 6 6 5 5 5 5 3 3 3 3 4 4 2 2 4 4 3 3
10 9 10 10 10 10 10 10 10 10 8 7 5 6 5 5 5 4 4 4 5 6 7 7 7 7 6 6 7 7 5 5 4 3 2 2 3 3 2 2 3 4 4
9 9 10 10 10 10 9 9 9 9 9 8 7 6 5 5 4 5 5 5 4 5 5 6 6 6 5 6 7 6 7 6 5 4 2 2 0 1 2 2 2 1 1
8 8 9 8 8 8 8 8 8 8 8 8 7 6 6 6 6 6 5 4 3 3 4 5 5 6 5 6 7 7 8 7 6 5 4 3 2 2 2 2 2 1 1
8 8 8 8 8 8 8 8 8 8 8 8 7 7 6 6 6 6 5 4 3 2 3 3 4 4 5 6 6 7 7 7 7 6 5 4 3 2 3 3 2 2 1
6 7 7 7 7 8 7 7 8 8 8 8 7 7 7 5 4 5 4 3 2 2 2 2 2 3 4 5 5 5 6 6 6 7 6 4 4 3 3 3 4 2 1
6 6 6 6 6 6 6 6 6 7 7 8 8 7 7 6 6 6 5 4 3 2 2 2 2 1 1 2 3 4 5 5 6 6 6 5 4 3 3 3 3 4 4
6 5 5 5 5 5 5 5 5 6 6 6 6 6 6 6 5 5 6 6 6 5 4 4 3 2 1 0 1 2 4 5 5 4 6 5 4 4 3 3 3 3 4
4 4 4 4 4 5 5 5 6 6 6 6 6 6 6 6 6 5 6 6 6 6 6 5 5 4 3 2 1 1 1 3 3 4 5 5 5 4 4 4 3 3 3
3 4 4 4 4 5 5 5 6 6 5 6 6 6 7 7 7 7 7 6 6 6 6 6 5 6 5 4 2 1 1 2 3 3 4 5 5 5 4 4 4 3 3
3 3 3 3 4 4 4 5 5 5 5 6 6 7 7 7 7 7 7 7 7 7 7 7 7 6 6 5 4 3 2 2 2 3 4 5 6 5 4 4 4 3 3
3 3 3 3 3 3 3 4 4 4 5 5 6 7 7 7 7 7 7 8 8 8 8 8 8 7 7 7 6 4 2 2 2 2 3 4 5 5 5 4 4 4 4
4 4 3 3 3 3 4 4 4 4 5 5 6 6 6 7 7 7 7 7 8 9 7 8 8 7 6 7 7 5 3 3 3 4 4 4 6 6 4 3 4 4 4
4 4 4 4 4 3 4 4 4 4 5 5 5 5 6 6 7 7 7 7 7 7 7 7 7 7 7 10 10 7 3 3 3 4 4 5 5 6 6 6 5 5 5
3 4 4 3 2 3 3 3 3 4 5 5 5 5 6 6 6 7 7 7 6 6 6 6 6 6 8 12 12 10 3 3 4 4 3 4 5 6 5 6 7 6 4
3 3 3 2 2 4 3 2 3 5 5 5 5 5 5 6 6 5 6 6 5 5 5 6 6 5 9 13 12 10 4 3 4 4 4 4 5 4 4 5 6 7 6
2 2 2 2 3 4 3 3 4 5 5 5 5 5 5 5 6 6 5 4 4 4 4 5 5 6 7 13 12 9 3 4 5 6 6 5 5 6 5 6 7 7 6
2 2 3 3 3 3 2 2 4 6 5 5 5 5 4 4 5 5 5 4 3 4 3 4 5 6 6 12 13 11 3 4 4 5 6 9 7 6 5 5 6 7 5
1 1 2 2 2 2 2 3 5 5 5 4 3 4 4 4 4 4 4 4 4 4 4 4 4 5 7 10 13 11 4 3 4 4 4 4 8 7 6 5 5 6 5
3 1 2 1 1 1 2 3 5 4 3 2 2 2 3 4 4 3 4 4 5 5 5 4 4 4 5 8 10 12 10 7 5 4 3 3 7 8 8 6 6 7 6
3 2 1 1 1 2 2 2 4 3 2 1 1 1 2 2 3 4 5 5 5 4 4 4 4 4 4 6 12 10 10 10 5 4 5 5 6 6 6 7 7 5 4
3 3 3 3 2 3 2 2 3 2 2 1 1 0 2 3 3 3 3 4 4 5 5 5 5 4 5 6 6 5 4 5 4 3 5 6 7 6 5 4 4 4 4
4 4 3 1 1 2 3 3 3 2 3 3 2 2 3 2 2 3 2 3 3 2 2 3 4 4 4 5 8 4 3 3 3 2 2 3 2 3 3 3 3 3 4
5 5 4 3 3 3 3 4 3 2 4 1 2 1 2 2 1 2 3 3 2 3 3 4 3 3 4 5 7 7 7 6 5 3 3 3 3 3 2 3 3 3 3
Wind_Direction
0 8 358 355 351 349 343 336 327 324 319 309 300 298 294 286 264 245 235 229 230 224 219 222 219 211 210 216 224 224 223 230 238 216 279 226 208 200 190 195 175 179 166
356 1 356 356 352 348 342 332 332 328 324 313 303 288 286 280 266 252 242 230 229 219 217 211 208 208 205 210 209 216 221 228 229 190 170 218 287 274 205 178 197 202 161
355 354 352 354 348 348 345 338 333 329 325 320 310 303 297 288 283 264 250 234 226 222 215 213 202 206 201 200 199 201 204 213 240 219 170 167 209 238 262 201 190 204 170
356 352 354 355 352 351 347 340 339 336 331 327 318 310 296 291 292 294 281 271 246 227 218 216 209 206 201 200 202 198 196 193 222 247 226 193 160 161 232 260 203 191 186
357 358 358 354 353 351 348 343 344 343 341 335 324 314 306 300 298 299 289 277 266 249 230 218 213 209 202 204 207 202 195 192 201 216 223 232 216 180 155 225 267 274 205
359 1 357 355 353 353 352 348 348 346 343 341 338 333 324 319 316 311 304 300 278 259 245 229 217 214 205 207 205 207 202 194 198 207 208 195 183 194 167 188 212 219 279
3 1 1 358 356 357 358 355 357 354 351 349 349 346 338 328 320 311 303 300 292 283 267 251 227 220 213 207 199 200 200 196 196 203 204 202 201 184 176 180 192 207 239
7 2 0 359 355 358 359 359 359 357 357 354 351 349 351 342 327 320 318 323 309 292 296 284 256 229 217 209 200 202 198 195 197 201 194 195 199 193 186 178 171 181 218
5 3 360 1 359 357 355 359 0 1 358 356 351 349 352 351 347 345 344 340 331 330 335 329 308 273 226 204 186 196 198 192 193 194 190 187 186 181 180 174 166 162 177
2 5 4 7 359 352 346 4 8 6 1 358 354 352 354 352 351 358 1 358 358 4 16 10 2 12 350 196 182 197 198 194 192 185 189 186 179 172 166 160 156 154 162
1 6 8 10 3 1 3 18 15 14 5 1 357 357 4 3 8 10 7 5 7 15 22 24 22 24 21 23 95 163 168 186 187 183 181 183 174 166 164 158 159 162 155
7 20 17 12 7 7 8 18 18 16 10 5 5 11 18 17 19 20 16 11 16 17 21 25 28 29 24 24 29 72 148 167 180 179 166 166 160 156 155 159 164 160 158
16 33 16 12 5 6 10 15 19 13 20 14 11 16 21 20 21 20 18 17 21 23 24 30 30 30 25 26 25 33 60 105 140 155 153 154 148 146 148 154 157 157 161
17 32 19 15 5 17 22 17 18 18 33 30 22 18 20 20 21 20 21 21 21 27 27 29 26 27 28 25 16 19 44 81 85 95 121 134 142 147 148 155 159 155 150
18 24 28 28 6 34 38 27 26 30 38 39 30 19 20 19 20 22 25 27 25 28 26 28 26 22 24 20 11 4 32 69 83 84 93 103 113 119 132 148 157 155 150
21 16 27 38 5 35 45 32 32 38 46 46 36 22 23 20 19 21 22 25 26 24 25 26 25 25 20 11 17 13 21 64 83 95 100 108 104 106 109 116 128 141 151
27 18 20 38 358 47 51 42 41 46 47 45 43 32 27 25 25 22 21 22 24 19 18 21 23 25 17 16 17 10 20 71 78 83 99 112 110 105 110 107 100 84 85
31 21 7 6 18 56 45 48 74 65 50 37 41 41 33 23 20 23 24 21 17 13 14 18 18 20 22 20 16 8 36 67 82 81 76 88 93 95 111 108 88 71 51
29 20 350 344 36 51 36 21 61 75 59 37 36 43 37 26 17 17 19 15 8 9 19 19 21 23 21 21 19 15 44 63 70 71 67 72 76 66 84 103 101 94 79
45 2 329 9 33 39 31 10 62 71 61 42 35 40 44 38 24 13 7 6 9 8 23 29 32 32 28 27 26 22 52 67 74 69 69 61 58 61 79 116 114 110 109
121 308 315 45 35 15 358 42 64 69 67 54 40 36 35 53 46 10 358 7 11 13 25 34 42 46 40 32 31 32 46 60 74 70 61 49 50 60 70 94 110 129 133
161 224 309 44 86 36 352 76 85 86 87 77 58 57 51 35 38 22 8 15 14 17 25 28 33 42 43 35 29 38 45 52 70 71 64 60 61 64 66 77 92 107 109
168 175 237 275 210 126 47 67 108 115 120 107 92 95 101 90 46 27 22 18 16 17 19 21 25 31 39 30 27 38 51 54 64 69 77 75 78 78 72 70 75 87 96
179 177 214 231 196 124 128 113 124 154 178 176 190 141 84 76 75 44 30 38 23 16 13 16 15 20 37 23 9 10 43 58 63 70 73 67 66 75 81 76 70 73 94
177 189 222 222 199 177 167 148 153 202 220 203 180 144 115 100 95 93 49 49 73 58 26 8 9 19 21 6 2 12 22 27 33 33 64 67 63 58 58 72 79 80 86
188 190 189 199 242 210 169 156 162 229 265 235 118 114 136 144 151 148 133 58 82 102 74 52 39 66 44 6 13 22 27 25 13 39 74 74 73 76 76 82 82 79 86